kk4eqf Belleair FL US current weather conditions

sailwx.info

Wind from 083 at 7 knots gusting 12

Air temperature 25.0° C
Dewpoint 20.2° C

Last reported at 2020-Feb-16 16:06 UTC.
Time now 2020-Feb-18 01:56 UTC

Location: N 27°55' W 082°49'.
View on Google Maps.

See reports from other nearby stations

  
Tides and Currents Weather Stations Pressure Air Temp Water Temp Dewpoint Dewpoint Depression Visibility Wind Speed Wind Dir Waves Ship Positions
date/time (UTC)wind fromknots sea level pressurealtimeterstation pressurevisibilityair tempwater tempwave heightnotes
2020-Feb-16 16:06 083 7 gusting 12 25.0
2020-Feb-16 15:36 106 7 gusting 13 23.9
2020-Feb-16 15:06 093 7 gusting 11 22.8
2020-Feb-16 14:36 100 2 gusting 10 21.7
2020-Feb-16 14:06 100 1 gusting 10 20.0
2020-Feb-16 13:36 088 1 gusting 7 19.4
2020-Feb-16 13:06 094 1 gusting 7 17.8
2020-Feb-16 12:36 074 3 gusting 4 17.2
2020-Feb-16 12:06 071 0 gusting 6 17.2
2020-Feb-16 11:36 074 1 gusting 5 17.2
2020-Feb-16 11:06 071 2 gusting 5 17.2
2020-Feb-16 10:36 064 0 gusting 5 17.2
2020-Feb-16 10:06 063 1 gusting 5 17.8
2020-Feb-16 09:36 021 0 gusting 6 17.8
2020-Feb-16 09:06 074 1 gusting 5 17.8
2020-Feb-16 08:36 063 18.3
2020-Feb-16 08:06 064 1 gusting 4 18.3
2020-Feb-16 07:36 059 0 gusting 3 18.3
2020-Feb-16 07:06 073 18.3
2020-Feb-16 06:36 028 18.9
2020-Feb-16 06:06 065 18.9
2020-Feb-16 05:36 046 0 gusting 4 18.9
2020-Feb-16 05:06 056 4 gusting 4 19.4
2020-Feb-16 04:36 037 0 gusting 5 19.4
2020-Feb-16 04:06 046 0 gusting 5 19.4
2020-Feb-16 03:36 053 0 gusting 5 20.0
2020-Feb-16 03:06 041 0 gusting 4 20.6
2020-Feb-16 02:36 064 3 gusting 7 20.6
2020-Feb-16 02:06 360 2 gusting 8 21.1
2020-Feb-16 01:36 031 2 gusting 8 21.7
2020-Feb-16 01:06 042 21.7